CZ-6A DEB, 60641

Orbit data source: Space-Track

CZ-6A DEB, 60641 is space debris in LEO originally from a launch on Tue, 06 Aug 2024 UTC launched from the Taiyaun Space Center, China (TSC). Debris objects in space refer to the collection of defunct objects orbiting the Earth. Examples of debris include non-operational satellites, rocket bodies, and fragments generated from explosions, collisions, or faulty payload assembly.

Loading next visibility...
Identifier
60641, 2024-140AS
Orbit
LEO
Country
Flag of CNCN / PRC
Related business
Manufacturer
SAST
Mission
Spacecraft
Bus & Motor
Unknown
Mass
Unknown
Launch date (UTC)
2024-08-06 (2 years ago)
Launch vehicle
Unknown
Launch site
Taiyaun Space Center, China (TSC)
Object type
Payload
Rocket body
Debris
Shape & HBR
Unknown shape, 0.2 m
Radar Cross Section
Medium (>0.1 m² and <1 m²)

Expand to show TLE details & history
Last TLE update: 11 hours ago

TLE from 11 hours ago
0 CZ-6A DEB
1 60641U 24140AS  26171.40872206  .00000592  00000-0  39900-3 0  9994
2 60641  89.5811 322.5173 0340039 283.6174  72.7341 13.75451985 93569
Epoch: 2026-06-20T09:48Z
TLE epoch observation values (Epoch: 2026-06-20T09:48:33.585Z)
Latitude
-0.00002°
Longitude
-93.24641°
Altitude
916.653 km
Speed
7.427 km/s
True Right ascension
21h 30m 04s
True Declination
0° 00' 00"
Sunlit
Object was in full shadow at epoch
Visualization orbit readout
Latitude
Unknown
Longitude
Unknown
Altitude
Unknown
Speed
Unknown
Apparent Right ascension
Unknown
Apparent Declination
Unknown
Sunlit
N/A
Visualization observer readout
Local Sidereal Time
07:18:37
Azimuth
Unknown
Elevation
Unknown
Doppler factor
Unknown
Orbital elements
Apogee altitude
1,227.176 km
Perigee altitude
726.965 km
Semi-major axis
7,355.207 km
Eccentricity
0.034
Inclination
89.5811°
RAAN
322.5173°
Arg. of periapsis
283.6174°
True anomaly
76.49987°
Mean anomaly
72.7341°
Eccentric anomaly
74.61254°
Mean motion
3.44073 °/min
Orbital period
104.63 mins
BSTAR
0.000399
Loading maneuver chart data...
Computing Atmospheric mass density...
Loading historical data...
Loading historical data...
Loading historical data...
Loading historical data...
Loading historical data...
Loading historical data...
Loading historical data...

Documentation

Showing up to 5 results
|